| time (UTC) | temp C | wind direction | speed KPH | gust KPH | rain 1hr cm | rain 24hr cm | rain mn cm | humidity % | barometer mb |
| 20260503224533 | 15 | 360 | 0.0 | 25.7 | 0.00 | 0.00 | 0.00 | 44 | 1012.4 |
| 20260503223033 | 15 | 261 | 1.6 | 11.3 | 0.00 | 0.00 | 0.00 | 42 | 1012.5 |
| 20260503221533 | 15 | 206 | 0.0 | 22.5 | 0.00 | 0.00 | 0.00 | 42 | 1012.4 |
| 20260503220032 | 16 | 241 | 3.2 | 20.9 | 0.00 | 0.00 | 0.00 | 42 | 1012.6 |
| 20260503214531 | 16 | 229 | 3.2 | 24.1 | 0.00 | 0.00 | 0.00 | 42 | 1012.5 |
| 20260503213029 | 15 | 315 | 0.0 | 12.9 | 0.00 | 0.00 | 0.00 | 45 | 1012.7 |
| 20260503211529 | 15 | 216 | 0.0 | 11.3 | 0.00 | 0.00 | 0.00 | 43 | 1012.7 |
| 20260503210029 | 16 | 222 | 1.6 | 20.9 | 0.00 | 0.00 | 0.00 | 40 | 1012.7 |
| 20260503204530 | 16 | 284 | 1.6 | 25.7 | 0.00 | 0.00 | 0.00 | 43 | 1012.6 |
| 20260503203027 | 16 | 205 | 0.0 | 16.1 | 0.00 | 0.00 | 0.00 | 41 | 1012.9 |
| 20260503201525 | 16 | 238 | 3.2 | 27.4 | 0.00 | 0.00 | 0.00 | 40 | 1012.9 |
| 20260503200024 | 16 | 226 | 4.8 | 20.9 | 0.00 | 0.00 | 0.00 | 43 | 1013.1 |
| 20260503194521 | 16 | 198 | 0.0 | 19.3 | 0.00 | 0.00 | 0.00 | 42 | 1013.4 |
| 20260503193035 | 16 | 227 | 4.8 | 24.1 | 0.00 | 0.00 | 0.00 | 43 | 1013.7 |
| 20260503191517 | 16 | 209 | 1.6 | 17.7 | 0.00 | 0.00 | 0.00 | 42 | 1014.0 |
| 20260503190016 | 15 | 315 | 4.8 | 22.5 | 0.00 | 0.00 | 0.00 | 41 | 1014.2 |
| 20260503184521 | 16 | 225 | 0.0 | 8.0 | 0.00 | 0.00 | 0.00 | 45 | 1014.3 |
| 20260503183013 | 16 | 192 | 3.2 | 16.1 | 0.00 | 0.00 | 0.00 | 43 | 1014.6 |
| 20260503181512 | 15 | 198 | 0.0 | 20.9 | 0.00 | 0.00 | 0.00 | 45 | 1014.7 |
| 20260503180016 | 15 | 202 | 3.2 | 24.1 | 0.00 | 0.00 | 0.00 | 43 | 1014.9 |
| 20260503174507 | 15 | 273 | 0.0 | 19.3 | 0.00 | 0.00 | 0.00 | 46 | 1015.1 |
| 20260503173018 | 15 | 207 | 3.2 | 30.6 | 0.00 | 0.00 | 0.00 | 45 | 1015.3 |
| 20260503171509 | 15 | 236 | 3.2 | 22.5 | 0.00 | 0.00 | 0.00 | 46 | 1015.5 |
| 20260503090110 | 1 | 269 | 0.0 | 0.0 | 0.00 | 0.36 | 0.00 | 86 | 1016.8 |
| 20260503081556 | 2 | 182 | 0.0 | 0.0 | 0.00 | 0.36 | 0.00 | 86 | 1016.9 |
| 20260503071602 | 2 | 182 | 0.0 | 0.0 | 0.00 | 0.36 | 0.00 | 86 | 1016.8 |
| 20260503070110 | 2 | 182 | 0.0 | 0.0 | 0.00 | 0.38 | 0.00 | 86 | 1016.8 |
| 20260503060107 | 2 | 182 | 0.0 | 0.0 | 0.00 | 0.38 | 0.00 | 84 | 1017.1 |
| 20260503054544 | 3 | 182 | 0.0 | 0.0 | 0.00 | 0.38 | 0.00 | 83 | 1017.1 |
| 20260503053041 | 3 | 183 | 0.0 | 0.0 | 0.00 | 0.38 | 0.00 | 82 | 1017.1 |
| 20260503051539 | 3 | 182 | 0.0 | 0.0 | 0.00 | 0.38 | 0.00 | 81 | 1017.2 |
| 20260503050036 | 3 | 182 | 0.0 | 0.0 | 0.00 | 0.56 | 0.00 | 80 | 1017.2 |
| 20260503044540 | 4 | 182 | 0.0 | 0.0 | 0.00 | 0.56 | 0.00 | 79 | 1017.3 |
| 20260503043031 | 4 | 182 | 0.0 | 0.0 | 0.00 | 0.56 | 0.00 | 78 | 1017.3 |
| 20260503041528 | 5 | 182 | 0.0 | 0.0 | 0.00 | 0.56 | 0.00 | 77 | 1017.3 |
| 20260503040029 | 5 | 182 | 0.0 | 0.0 | 0.00 | 0.71 | 0.56 | 78 | 1017.4 |
| 20260503034525 | 5 | 182 | 0.0 | 0.0 | 0.00 | 0.71 | 0.56 | 77 | 1017.5 |
| 20260503033024 | 5 | 182 | 0.0 | 0.0 | 0.00 | 0.71 | 0.56 | 77 | 1017.5 |
| 20260503031524 | 5 | 182 | 0.0 | 0.0 | 0.00 | 0.71 | 0.56 | 76 | 1017.6 |
| 20260503030024 | 5 | 183 | 0.0 | 0.0 | 0.00 | 0.71 | 0.56 | 76 | 1017.5 |
| 20260503024523 | 5 | 183 | 0.0 | 0.0 | 0.00 | 0.71 | 0.56 | 75 | 1017.7 |
| 20260503023023 | 5 | 182 | 0.0 | 0.0 | 0.00 | 0.71 | 0.56 | 75 | 1017.9 |
| 20260503021522 | 5 | 183 | 0.0 | 0.0 | 0.00 | 0.71 | 0.56 | 74 | 1017.9 |
| 20260503020022 | 5 | 182 | 0.0 | 0.0 | 0.00 | 0.71 | 0.56 | 73 | 1017.8 |
| 20260503014521 | 5 | 182 | 0.0 | 0.0 | 0.00 | 0.71 | 0.56 | 74 | 1017.8 |
| 20260503013021 | 5 | 182 | 0.0 | 0.0 | 0.00 | 0.71 | 0.56 | 72 | 1017.7 |
| 20260503011521 | 6 | 182 | 0.0 | 0.0 | 0.00 | 0.71 | 0.56 | 71 | 1017.7 |
| 20260503010020 | 6 | 182 | 0.0 | 0.0 | 0.00 | 0.71 | 0.56 | 70 | 1017.7 |
| 20260503004519 | 6 | 182 | 0.0 | 0.0 | 0.00 | 0.71 | 0.56 | 69 | 1017.6 |
| 20260503003019 | 6 | 183 | 0.0 | 0.0 | 0.00 | 0.71 | 0.56 | 67 | 1017.5 |
| 20260503001519 | 6 | 182 | 0.0 | 0.0 | 0.00 | 0.71 | 0.56 | 68 | 1017.6 |
| 20260503000020 | 6 | 182 | 0.0 | 0.0 | 0.00 | 0.71 | 0.56 | 66 | 1017.5 |
| 20260502234518 | 6 | 183 | 0.0 | 0.0 | 0.00 | 0.71 | 0.56 | 61 | 1017.5 |
| 20260502233019 | 7 | 182 | 0.0 | 0.0 | 0.00 | 0.71 | 0.56 | 63 | 1017.4 |
| 20260502231519 | 6 | 184 | 0.0 | 0.0 | 0.00 | 0.71 | 0.56 | 61 | 1017.4 |
| 20260502230023 | 6 | 286 | 0.0 | 1.6 | 0.00 | 0.71 | 0.56 | 57 | 1017.6 |